When you browse on this site, cookies collect data to enhance your experience and personalize the content and advertising you see.
Visit our Privacy Policy to learn more. By continuing to use the site, you agree to this use of cookies and data.
  • In Portugal
  • List of Countries
  • For 7 days
  • Water Temperature
  • Satellite Maps
  • Weather Map
  • Weather Widgets
  • user-avatar
    Login

    Hourly Weather Mihaylovka

    Today, 16 February, Saturday

    Time Temperature Precipitation Wind Pressure Humidity
    00:00 -4°C° 0.2 mm 6 mps 739 mmHg 92%
    01:00 -4°C° 0.1 mm 5 mps 738 mmHg 92%
    02:00 -2°C° 0.1 mm 5 mps 738 mmHg 92%
    03:00 -2°C° 0.1 mm 5 mps 738 mmHg 92%
    04:00 -2°C° 0.1 mm 4 mps 738 mmHg 93%
    05:00 -2°C° 0.1 mm 4 mps 738 mmHg 93%
    06:00 -3°C° 0.1 mm 4 mps 737 mmHg 93%
    07:00 -3°C° 0 mm 4 mps 738 mmHg 93%
    08:00 -3°C° 0 mm 4 mps 738 mmHg 93%
    09:00 -3°C° 0 mm 4 mps 738 mmHg 94%
    10:00 -2°C° 0 mm 3 mps 738 mmHg 95%
    11:00 -1°C° 0 mm 3 mps 738 mmHg 97%
    12:00 -1°C° 0 mm 3 mps 738 mmHg 99%
    13:00 -1°C° 0.1 mm 3 mps 738 mmHg 98%
    14:00 -1°C° 0.1 mm 3 mps 738 mmHg 98%
    15:00 -1°C° 0.1 mm 3 mps 738 mmHg 98%
    16:00 -1°C° 0.1 mm 3 mps 738 mmHg 97%
    17:00 -1°C° 0.1 mm 2 mps 738 mmHg 97%
    18:00 -2°C° 0.1 mm 2 mps 739 mmHg 96%
    19:00 -2°C° 0.1 mm 2 mps 739 mmHg 96%
    20:00 -2°C° 0.1 mm 2 mps 739 mmHg 96%
    21:00 -2°C° 0.1 mm 2 mps 739 mmHg 96%
    22:00 -2°C° 0.1 mm 3 mps 739 mmHg 96%
    23:00 -2°C° 0.1 mm 3 mps 739 mmHg 96%

    Tomorrow, 17 February, Sunday

    Time Temperature Precipitation Wind Pressure Humidity
    00:00 -2°C° 0.1 mm 3 mps 740 mmHg 95%
    01:00 -4°C° 0 mm 3 mps 740 mmHg 96%
    02:00 -5°C° 0 mm 3 mps 740 mmHg 96%
    03:00 -6°C° 0 mm 3 mps 740 mmHg 96%
    04:00 -6°C° 0 mm 3 mps 740 mmHg 96%
    05:00 -5°C° 0 mm 2 mps 739 mmHg 97%
    06:00 -5°C° 0 mm 2 mps 739 mmHg 97%
    07:00 -5°C° 0 mm 2 mps 739 mmHg 97%
    08:00 -5°C° 0 mm 2 mps 739 mmHg 96%
    09:00 -6°C° 0 mm 3 mps 738 mmHg 96%
    10:00 -6°C° 0 mm 3 mps 738 mmHg 95%
    11:00 -7°C° 0 mm 4 mps 737 mmHg 93%
    12:00 -6°C° 0 mm 5 mps 736 mmHg 92%
    13:00 -7°C° 0 mm 5 mps 735 mmHg 92%
    14:00 -7°C° 0 mm 5 mps 734 mmHg 91%
    15:00 -7°C° 0 mm 5 mps 733 mmHg 91%
    16:00 -7°C° 0.1 mm 5 mps 733 mmHg 92%
    17:00 -8°C° 0.1 mm 6 mps 732 mmHg 92%
    18:00 -6°C° 0.1 mm 6 mps 731 mmHg 93%
    19:00 -6°C° 0.4 mm 5 mps 731 mmHg 93%
    20:00 -5°C° 0.4 mm 5 mps 730 mmHg 94%
    21:00 -5°C° 0.4 mm 5 mps 729 mmHg 94%
    22:00 -5°C° 0.1 mm 5 mps 729 mmHg 92%
    23:00 -4°C° 0.1 mm 4 mps 728 mmHg 91%

    Day after tomorrow, 18 February, Monday

    Time Temperature Precipitation Wind Pressure Humidity
    00:00 -4°C° 0.1 mm 4 mps 728 mmHg 89%
    01:00 -5°C° 0 mm 4 mps 728 mmHg 90%
    02:00 -7°C° 0 mm 4 mps 728 mmHg 91%
    03:00 -8°C° 0 mm 4 mps 727 mmHg 92%
    04:00 -9°C° 0 mm 4 mps 727 mmHg 93%
    05:00 -9°C° 0 mm 4 mps 727 mmHg 94%
    06:00 -9°C° 0 mm 3 mps 727 mmHg 94%
    07:00 -8°C° 0.2 mm 4 mps 727 mmHg 94%
    08:00 -7°C° 0.2 mm 4 mps 727 mmHg 93%
    09:00 -5°C° 0.2 mm 5 mps 728 mmHg 92%
    10:00 -5°C° 0.2 mm 5 mps 728 mmHg 92%
    11:00 -5°C° 0.2 mm 6 mps 728 mmHg 91%
    12:00 -4°C° 0.2 mm 6 mps 729 mmHg 90%
    13:00 -4°C° 0.2 mm 6 mps 729 mmHg 89%
    14:00 -4°C° 0.2 mm 7 mps 730 mmHg 87%
    15:00 -4°C° 0.2 mm 7 mps 731 mmHg 86%
    16:00 -4°C° 0.1 mm 7 mps 732 mmHg 87%
    17:00 -6°C° 0.1 mm 7 mps 733 mmHg 89%
    18:00 -6°C° 0.1 mm 7 mps 734 mmHg 90%
    19:00 -7°C° 0.1 mm 8 mps 735 mmHg 88%
    20:00 -9°C° 0.1 mm 9 mps 736 mmHg 86%
    21:00 -10°C° 0.1 mm 10 mps 737 mmHg 83%
    22:00 -10°C° 0 mm 10 mps 738 mmHg 84%
    23:00 -11°C° 0 mm 9 mps 739 mmHg 84%

    19 February, Tuesday

    Time Temperature Precipitation Wind Pressure Humidity
    00:00 -12°C° 0 mm 9 mps 740 mmHg 84%
    01:00 -14°C° 0 mm 9 mps 741 mmHg 83%
    02:00 -15°C° 0 mm 9 mps 742 mmHg 83%
    03:00 -16°C° 0 mm 9 mps 743 mmHg 83%
    04:00 -17°C° 0 mm 8 mps 744 mmHg 83%
    05:00 -18°C° 0 mm 7 mps 745 mmHg 82%
    06:00 -19°C° 0 mm 7 mps 746 mmHg 82%
    07:00 -18°C° 0 mm 6 mps 747 mmHg 83%
    08:00 -18°C° 0 mm 6 mps 748 mmHg 84%
    09:00 -18°C° 0 mm 5 mps 749 mmHg 85%
    10:00 -17°C° 0 mm 5 mps 749 mmHg 86%
    11:00 -15°C° 0 mm 4 mps 749 mmHg 87%
    12:00 -14°C° 0 mm 4 mps 750 mmHg 88%
    13:00 -14°C° 0 mm 4 mps 749 mmHg 86%
    14:00 -12°C° 0 mm 4 mps 749 mmHg 85%
    15:00 -11°C° 0 mm 4 mps 749 mmHg 84%
    16:00 -10°C° 0 mm 4 mps 748 mmHg 83%
    17:00 -10°C° 0 mm 5 mps 748 mmHg 82%
    18:00 -10°C° 0 mm 6 mps 748 mmHg 81%
    19:00 -10°C° 0 mm 5 mps 748 mmHg 81%
    20:00 -10°C° 0 mm 5 mps 747 mmHg 81%
    21:00 -10°C° 0 mm 5 mps 747 mmHg 81%
    22:00 -11°C° 0 mm 5 mps 747 mmHg 82%
    23:00 -10°C° 0 mm 4 mps 747 mmHg 83%

    20 February, Wednesday

    Time Temperature Precipitation Wind Pressure Humidity
    00:00 -11°C° 0 mm 4 mps 746 mmHg 84%
    01:00 -11°C° 0 mm 4 mps 746 mmHg 85%
    02:00 -11°C° 0 mm 4 mps 746 mmHg 86%
    03:00 -12°C° 0 mm 4 mps 746 mmHg 87%
    04:00 -12°C° 0 mm 4 mps 746 mmHg 87%
    05:00 -11°C° 0 mm 4 mps 746 mmHg 87%
    06:00 -11°C° 0 mm 4 mps 746 mmHg 86%
    07:00 -12°C° 0 mm 5 mps 746 mmHg 85%
    08:00 -11°C° 0 mm 5 mps 746 mmHg 83%
    09:00 -10°C° 0 mm 5 mps 746 mmHg 82%
    10:00 -9°C° 0 mm 6 mps 745 mmHg 81%
    11:00 -8°C° 0 mm 6 mps 745 mmHg 81%
    12:00 -8°C° 0 mm 6 mps 745 mmHg 80%
    13:00 -8°C° 0 mm 6 mps 745 mmHg 80%
    14:00 -8°C° 0 mm 6 mps 744 mmHg 80%
    15:00 -6°C° 0 mm 6 mps 744 mmHg 80%
    16:00 -8°C° 0 mm 7 mps 744 mmHg 81%
    17:00 -9°C° 0 mm 7 mps 744 mmHg 81%
    18:00 -11°C° 0 mm 7 mps 743 mmHg 82%
    19:00 -11°C° 0 mm 7 mps 743 mmHg 84%
    20:00 -12°C° 0 mm 7 mps 743 mmHg 85%
    21:00 -12°C° 0 mm 7 mps 742 mmHg 87%
    22:00 -12°C° 0 mm 7 mps 742 mmHg 88%
    23:00 -12°C° 0 mm 7 mps 741 mmHg 89%

    21 February, Thursday

    Time Temperature Precipitation Wind Pressure Humidity
    00:00 -12°C° 0 mm 8 mps 741 mmHg 90%
    01:00 -11°C° 0.2 mm 7 mps 740 mmHg 90%
    02:00 -11°C° 0.2 mm 7 mps 740 mmHg 91%
    03:00 -11°C° 0.2 mm 7 mps 740 mmHg 91%
    04:00 -9°C° 0.1 mm 7 mps 739 mmHg 91%
    05:00 -9°C° 0.1 mm 7 mps 739 mmHg 91%
    06:00 -8°C° 0.1 mm 7 mps 739 mmHg 91%
    07:00 -8°C° 0.1 mm 7 mps 739 mmHg 91%
    08:00 -7°C° 0.1 mm 7 mps 739 mmHg 91%
    09:00 -6°C° 0.1 mm 7 mps 739 mmHg 91%
    10:00 -6°C° 0.2 mm 7 mps 738 mmHg 91%
    11:00 -4°C° 0.2 mm 7 mps 738 mmHg 91%
    12:00 -3°C° 0.2 mm 7 mps 737 mmHg 91%
    13:00 -3°C° 0.1 mm 7 mps 737 mmHg 90%
    14:00 -3°C° 0.1 mm 7 mps 737 mmHg 90%
    15:00 -2°C° 0.1 mm 7 mps 737 mmHg 90%
    16:00 -3°C° 0.1 mm 6 mps 737 mmHg 90%
    17:00 -3°C° 0.1 mm 6 mps 737 mmHg 91%
    18:00 -4°C° 0.1 mm 5 mps 737 mmHg 91%
    19:00 -4°C° 0.1 mm 5 mps 737 mmHg 92%
    20:00 -4°C° 0.1 mm 4 mps 737 mmHg 93%
    21:00 -5°C° 0.1 mm 4 mps 737 mmHg 94%
    22:00 -5°C° 0 mm 4 mps 736 mmHg 94%
    23:00 -7°C° 0 mm 4 mps 736 mmHg 94%
    Show more